Regional Weather Roundup
Issued by NWS Columbia, SC

Current Version | Previous Version | Text Only | Print | Product List | Glossary On
Versions: 1 2 3 4 5 6 7 8 9 10 11 12 13 14 15 16 17 18 19 20 21 22 23 24 25 26 27
000
ASUS42 KCAE 020810
RWRCAE
REGIONAL WEATHER ROUNDUP
NATIONAL WEATHER SERVICE COLUMBIA SC
400 AM EDT SAT JUL 02 2022

NOTE: "FAIR" INDICATES FEW OR NO CLOUDS BELOW 12,000 FEET WITH NO
SIGNIFICANT WEATHER AND/OR OBSTRUCTIONS TO VISIBILITY.

NOT ALL STATIONS ARE QUALITY CONTROLLED BY THE NATIONAL
WEATHER SERVICE. USE DATA WITH CAUTION...ESPECIALLY
DEWPOINT OBSERVATIONS.

SCZ001>059-115-116-135>137-GAZ040-063>065-077-020900-
...UPSTATE SOUTH CAROLINA...

CITY           SKY/WX    TMP DP  RH WIND       PRES   REMARKS
ANDERSON       CLEAR     71  70  96 CALM      30.05S
LIBERTY        CLOUDY    69  69 100 CALM      30.05F FOG
SPARTANBURG    CLOUDY    72  70  94 CALM      30.05F
CLEMSON        PTCLDY    70  70 100 W3        30.05F
GREENVILLE     PTCLDY    73  70  90 CALM      30.06F
GREENWOOD      FOG       70  70 100 CALM      30.05S VSB 1/2
GREER          CLOUDY    71  68  90 CALM      30.05F
ROCK HILL      FOG       68  67  96 CALM      30.05F VSB 1/2
LAURENS        FOG       68  68 100 CALM      30.04F VSB 1/4


...CENTRAL SOUTH CAROLINA...

CITY           SKY/WX    TMP DP  RH WIND       PRES   REMARKS
COLUMBIA APT   CLOUDY    72  71  97 N6        30.01S FOG
COLUMBIA OWENS MOCLDY    73  71  93 VRB3      30.01F
MCENTIRE ANGB  CLOUDY    72  72 100 NW5       29.99F
ORANGEBURG     CLOUDY    73  73 100 N3        30.00S
SUMTER SHAW    CLOUDY    72  71  95 NE3       29.99F
NEWBERRY       CLEAR     68  66  94 CALM      30.06F
AIKEN          FAIR      70  69  98 CALM      30.04S
BARNWELL       CLOUDY    72  70  94 W5        30.01F
MANNING        CLOUDY    70  70 100 N5        29.99S FOG
CAMDEN         MOCLDY    72  72 100 N6        30.02F
LANCASTER        N/A     70  68  94 CALM      30.04F
WINNSBORO      CLOUDY    68  68 100 N3        30.03F FOG


...EASTERN AND COASTAL SOUTH CAROLINA...

CITY           SKY/WX    TMP DP  RH WIND       PRES   REMARKS
MYRTLE BEACH   CLOUDY    77  74  90 SE22G30   29.99F
N MYRTLE BCH   LGT RAIN  76  73  91 S15       30.00F
CONWAY         CLOUDY    72  72 100 CALM      29.99F
MARION         LGT RAIN  70  66  88 CALM      30.01F
HARTSVILLE     MOCLDY    72  72 100 CALM      30.02F
FLORENCE       CLOUDY    74  71  91 NE6       30.00F
DARLINGTON     CLOUDY    72  72 100 NE5       30.03S
CHARLESTON APT CLOUDY    74  73  97 W8        29.95F FOG
MOUNT PLEASANT CLOUDY    75  75 100 VRB6      29.94S FOG
WALTERBORO     CLOUDY    72  72 100 W5        30.01R
BEAUFORT       LGT RAIN  74  71  91 NW6       29.99F
HILTON HEAD    PTCLDY    75  73  94 W5        30.00F


...EASTERN GEORGIA...

CITY           SKY/WX    TMP DP  RH WIND       PRES   REMARKS
AUGUSTA BUSH F PTCLDY    71  70  96 CALM      30.00F
AUGUSTA DANIEL FOG       71  71 100 CALM      30.02F VSB 3/4
THOMSON        CLOUDY    71  71  99 CALM      30.03F VSB 1/2
WASHINGTON     FOG       71  71  99 CALM      30.04S VSB<1/4
CLAXTON        CLOUDY    75  73  94 CALM      30.01F
STATESBORO     CLOUDY    72  70  93 CALM      30.01F FOG
SAVANNAH       CLOUDY    74  72  93 SW5       30.01S


...SOUTHERN NORTH CAROLINA...

CITY           SKY/WX    TMP DP  RH WIND       PRES   REMARKS
CHARLOTTE      PTCLDY    70  68  93 CALM      30.05F FOG
MONROE         FOG       71  70  96 CALM      30.04S VSB 1/2
WADESBORO      FOG       71  70  96 CALM      30.04F VSB 1
ROCKINGHAM     FOG       71  71  99 CALM      30.04S VSB 3/4
RUTHERFORDTON  CLOUDY    70  70 100 CALM      30.08F
ASHEVILLE      CLOUDY    67  64  90 CALM      30.11F

$$



USA.gov is the U.S. government's official web portal to all federal, state and local government web resources and services.